Wetterdaten: Dienstag, 26.04.2016
Datum Zeit Auen-Temp. Temp gefhlt Luftfeuchte Luftdruck Regen Wind Richtung Richtung Sonnenschein Taupunkt Windben
26.04.2016 00:00 0,3 C -0,5 C 68 % 1008,0 hPa 0,0 mm 6,9 km/h (2 Bft) W-SW 247 0 min -4,9 C 9,2 km/h (2 Bft)
26.04.2016 00:05 0,2 C -0,5 C 68 % 1008,0 hPa 0,0 mm 6,3 km/h (2 Bft) S-SW 202 0 min -5,0 C 13,1 km/h (3 Bft)
26.04.2016 00:10 0,2 C -0,5 C 68 % 1008,0 hPa 0,0 mm 6,3 km/h (2 Bft) S-SW 202 0 min -5,0 C 13,1 km/h (3 Bft)
26.04.2016 00:15 -0,1 C -0,7 C 69 % 1007,9 hPa 0,0 mm 5,7 km/h (1 Bft) SW 225 0 min -5,1 C 14,9 km/h (3 Bft)
26.04.2016 00:20 -0,2 C -0,9 C 70 % 1007,9 hPa 0,0 mm 6,9 km/h (2 Bft) SW 225 0 min -5,0 C 6,9 km/h (2 Bft)
26.04.2016 00:25 -0,4 C -0,7 C 71 % 1007,9 hPa 0,0 mm 4,2 km/h (1 Bft) S 180 0 min -5,0 C 0,0 km/h (0 Bft)
26.04.2016 00:30 -0,6 C -0,9 C 72 % 1007,9 hPa 0,0 mm 2,7 km/h (1 Bft) SO 135 0 min -5,0 C 0,0 km/h (0 Bft)
26.04.2016 00:35 -0,8 C -1,2 C 73 % 1007,6 hPa 0,0 mm 0,6 km/h (0 Bft) S 180 0 min -5,0 C 0,0 km/h (0 Bft)
26.04.2016 00:40 -1,0 C -1,4 C 74 % 1007,6 hPa 0,0 mm 0,6 km/h (0 Bft) O-NO 67 0 min -5,0 C 0,0 km/h (0 Bft)
26.04.2016 00:45 -1,2 C -1,7 C 75 % 1007,6 hPa 0,0 mm 0,3 km/h (0 Bft) O-SO 112 0 min -5,0 C 0,0 km/h (0 Bft)
26.04.2016 00:50 -1,2 C -1,7 C 75 % 1007,6 hPa 0,0 mm 0,3 km/h (0 Bft) O-SO 112 0 min -5,0 C 0,0 km/h (0 Bft)
26.04.2016 00:55 -1,4 C -2,0 C 76 % 1007,4 hPa 0,0 mm 0,9 km/h (0 Bft) S-SO 157 0 min -5,1 C 3,3 km/h (1 Bft)
26.04.2016 01:00 -1,4 C -2,0 C 76 % 1007,4 hPa 0,0 mm 1,5 km/h (1 Bft) S-SO 157 0 min -5,1 C 0,0 km/h (0 Bft)
26.04.2016 01:05 -1,3 C -1,9 C 77 % 1007,4 hPa 0,0 mm 1,8 km/h (1 Bft) SO 135 0 min -4,8 C 0,0 km/h (0 Bft)
26.04.2016 01:10 -1,4 C -2,0 C 77 % 1007,4 hPa 0,0 mm 1,5 km/h (1 Bft) O-SO 112 0 min -4,9 C 0,0 km/h (0 Bft)
26.04.2016 01:15 -1,6 C -2,2 C 77 % 1007,2 hPa 0,0 mm 0,3 km/h (0 Bft) SO 135 0 min -5,1 C 0,0 km/h (0 Bft)
26.04.2016 01:20 -1,6 C -2,3 C 77 % 1007,2 hPa 0,0 mm 0,3 km/h (0 Bft) SO 135 0 min -5,1 C 0,0 km/h (0 Bft)
26.04.2016 01:25 -1,9 C -2,5 C 78 % 1007,2 hPa 0,0 mm 0,3 km/h (0 Bft) NW 315 0 min -5,2 C 0,0 km/h (0 Bft)
26.04.2016 01:30 -2,2 C -2,7 C 78 % 1007,2 hPa 0,0 mm 0,0 km/h (0 Bft) S 180 0 min -5,5 C 0,0 km/h (0 Bft)
26.04.2016 01:35 -2,3 C -2,8 C 78 % 1006,8 hPa 0,0 mm 0,9 km/h (0 Bft) SO 135 0 min -5,6 C 4,2 km/h (1 Bft)
26.04.2016 01:40 -2,1 C -2,7 C 78 % 1006,8 hPa 0,0 mm 0,9 km/h (0 Bft) SO 135 0 min -5,4 C 0,0 km/h (0 Bft)
26.04.2016 01:45 -2,1 C -2,7 C 79 % 1006,8 hPa 0,0 mm 0,9 km/h (0 Bft) SO 135 0 min -5,2 C 0,0 km/h (0 Bft)
26.04.2016 01:50 -2,1 C -2,6 C 76 % 1006,8 hPa 0,0 mm 0,3 km/h (0 Bft) O-SO 112 0 min -5,7 C 0,0 km/h (0 Bft)
26.04.2016 01:53 -2,0 C -2,5 C 76 % 1006,6 hPa 0,0 mm 1,2 km/h (1 Bft) S-SW 202 0 min -5,6 C 6,3 km/h (2 Bft)
26.04.2016 01:54 -2,0 C -2,5 C 76 % 1006,6 hPa 0,0 mm 1,2 km/h (1 Bft) S-SW 202 0 min -5,6 C 6,3 km/h (2 Bft)
26.04.2016 01:55 -2,0 C -2,5 C 76 % 1006,6 hPa 0,0 mm 1,2 km/h (1 Bft) S-SW 202 0 min -5,6 C 6,3 km/h (2 Bft)
26.04.2016 02:00 -1,8 C -2,3 C 79 % 1006,6 hPa 0,0 mm 2,7 km/h (1 Bft) SO 135 0 min -4,9 C 5,4 km/h (1 Bft)
26.04.2016 02:05 -1,6 C -2,0 C 77 % 1006,6 hPa 0,0 mm 3,3 km/h (1 Bft) SO 135 0 min -5,1 C 4,8 km/h (1 Bft)
26.04.2016 02:10 -1,6 C -2,0 C 77 % 1006,6 hPa 0,0 mm 2,4 km/h (1 Bft) W-SW 247 0 min -5,1 C 4,8 km/h (1 Bft)
26.04.2016 02:15 -1,5 C -1,7 C 77 % 1006,3 hPa 0,0 mm 2,4 km/h (1 Bft) O-SO 112 0 min -5,0 C 3,3 km/h (1 Bft)
26.04.2016 02:20 -1,3 C -1,6 C 77 % 1006,3 hPa 0,0 mm 1,2 km/h (1 Bft) O-SO 112 0 min -4,8 C 0,0 km/h (0 Bft)
26.04.2016 02:25 -1,2 C -1,5 C 79 % 1006,3 hPa 0,0 mm 0,3 km/h (0 Bft) N-NW 337 0 min -4,4 C 0,0 km/h (0 Bft)
26.04.2016 02:30 -1,1 C -1,4 C 77 % 1006,3 hPa 0,0 mm 0,0 km/h (0 Bft) S 180 0 min -4,6 C 0,0 km/h (0 Bft)
26.04.2016 02:35 -0,8 C -1,1 C 79 % 1006,0 hPa 0,0 mm 0,0 km/h (0 Bft) S-SO 157 0 min -4,0 C 0,0 km/h (0 Bft)
26.04.2016 02:40 -0,7 C -1,1 C 79 % 1006,0 hPa 0,0 mm 0,0 km/h (0 Bft) NO 45 0 min -3,9 C 0,0 km/h (0 Bft)
26.04.2016 02:45 -0,7 C -0,9 C 77 % 1006,0 hPa 0,0 mm 0,0 km/h (0 Bft) O-NO 67 0 min -4,2 C 0,0 km/h (0 Bft)
26.04.2016 02:50 -0,8 C -1,1 C 79 % 1006,0 hPa 0,0 mm 0,0 km/h (0 Bft) O-NO 67 0 min -4,0 C 0,0 km/h (0 Bft)
26.04.2016 02:55 -0,9 C -1,1 C 79 % 1005,6 hPa 0,0 mm 0,0 km/h (0 Bft) O-NO 67 0 min -4,1 C 0,0 km/h (0 Bft)
26.04.2016 03:00 -0,9 C -1,2 C 79 % 1005,6 hPa 0,0 mm 0,0 km/h (0 Bft) O 90 0 min -4,1 C 0,0 km/h (0 Bft)
26.04.2016 03:05 -1,0 C -1,2 C 76 % 1005,6 hPa 0,0 mm 0,0 km/h (0 Bft) O-NO 67 0 min -4,7 C 0,0 km/h (0 Bft)
26.04.2016 03:10 -1,0 C -1,2 C 79 % 1005,6 hPa 0,0 mm 0,0 km/h (0 Bft) NW 315 0 min -4,2 C 0,0 km/h (0 Bft)
26.04.2016 03:15 -0,9 C -1,1 C 77 % 1005,7 hPa 0,0 mm 0,0 km/h (0 Bft) S-SW 202 0 min -4,4 C 0,0 km/h (0 Bft)
26.04.2016 03:20 -0,6 C -0,7 C 77 % 1005,7 hPa 0,0 mm 0,3 km/h (0 Bft) SO 135 0 min -4,1 C 0,0 km/h (0 Bft)
26.04.2016 03:25 -0,5 C -0,8 C 79 % 1005,7 hPa 0,0 mm 0,6 km/h (0 Bft) N-NO 22 0 min -3,7 C 0,0 km/h (0 Bft)
26.04.2016 03:30 -0,7 C -0,9 C 79 % 1005,7 hPa 0,0 mm 0,3 km/h (0 Bft) S-SO 157 0 min -3,9 C 0,0 km/h (0 Bft)
26.04.2016 03:35 -0,6 C -0,6 C 77 % 1005,4 hPa 0,0 mm 1,2 km/h (1 Bft) SO 135 0 min -4,1 C 4,2 km/h (1 Bft)
26.04.2016 03:40 -0,2 C -0,4 C 77 % 1005,4 hPa 0,0 mm 1,8 km/h (1 Bft) S-SW 202 0 min -3,7 C 3,0 km/h (1 Bft)
26.04.2016 03:45 -0,1 C -0,2 C 77 % 1005,4 hPa 0,0 mm 1,5 km/h (1 Bft) SW 225 0 min -3,6 C 9,8 km/h (2 Bft)
26.04.2016 03:50 0,2 C 0,0 C 77 % 1005,4 hPa 0,0 mm 2,1 km/h (1 Bft) S-SO 157 0 min -3,3 C 0,0 km/h (0 Bft)
26.04.2016 03:55 0,4 C 0,1 C 77 % 1004,9 hPa 0,0 mm 5,1 km/h (1 Bft) S 180 0 min -3,1 C 6,0 km/h (2 Bft)
26.04.2016 04:00 0,6 C 0,4 C 77 % 1004,9 hPa 0,0 mm 4,8 km/h (1 Bft) SW 225 0 min -3,0 C 0,0 km/h (0 Bft)
26.04.2016 04:05 0,6 C 0,5 C 76 % 1004,9 hPa 0,0 mm 4,5 km/h (1 Bft) S 180 0 min -3,1 C 6,6 km/h (2 Bft)
26.04.2016 04:10 0,6 C 0,3 C 75 % 1004,9 hPa 0,0 mm 5,4 km/h (1 Bft) S-SO 157 0 min -3,3 C 12,2 km/h (2 Bft)
26.04.2016 04:15 0,6 C 0,4 C 75 % 1005,0 hPa 0,0 mm 3,0 km/h (1 Bft) SO 135 0 min -3,3 C 0,0 km/h (0 Bft)
26.04.2016 04:20 0,4 C 0,3 C 75 % 1005,0 hPa 0,0 mm 1,2 km/h (1 Bft) W-SW 247 0 min -3,5 C 6,0 km/h (2 Bft)
26.04.2016 04:25 0,4 C 0,2 C 75 % 1005,0 hPa 0,0 mm 1,2 km/h (1 Bft) NW 315 0 min -3,5 C 0,0 km/h (0 Bft)
26.04.2016 04:30 0,5 C 0,3 C 76 % 1005,0 hPa 0,0 mm 2,1 km/h (1 Bft) SO 135 0 min -3,2 C 4,8 km/h (1 Bft)
26.04.2016 04:35 0,6 C 0,4 C 75 % 1004,8 hPa 0,0 mm 2,1 km/h (1 Bft) W-SW 247 0 min -3,3 C 6,6 km/h (2 Bft)
26.04.2016 04:40 0,7 C 0,5 C 75 % 1004,8 hPa 0,0 mm 2,4 km/h (1 Bft) SO 135 0 min -3,2 C 3,0 km/h (1 Bft)
26.04.2016 04:45 0,6 C 0,4 C 75 % 1004,8 hPa 0,0 mm 1,8 km/h (1 Bft) O-SO 112 0 min -3,3 C 15,2 km/h (3 Bft)
26.04.2016 04:50 0,4 C 0,2 C 75 % 1004,8 hPa 0,0 mm 0,3 km/h (0 Bft) S-SO 157 0 min -3,5 C 0,0 km/h (0 Bft)
26.04.2016 04:53 0,4 C 0,2 C 76 % 1004,5 hPa 0,0 mm 0,3 km/h (0 Bft) W 270 0 min -3,3 C 0,0 km/h (0 Bft)
26.04.2016 04:55 0,4 C 0,2 C 76 % 1004,5 hPa 0,0 mm 0,3 km/h (0 Bft) W 270 0 min -3,3 C 0,0 km/h (0 Bft)
26.04.2016 05:00 0,4 C 0,1 C 76 % 1004,5 hPa 0,0 mm 0,3 km/h (0 Bft) W 270 0 min -3,3 C 0,0 km/h (0 Bft)
26.04.2016 05:05 0,5 C 0,2 C 76 % 1004,5 hPa 0,0 mm 0,0 km/h (0 Bft) S-SO 157 0 min -3,2 C 0,0 km/h (0 Bft)
26.04.2016 05:10 0,5 C 0,2 C 75 % 1004,5 hPa 0,0 mm 0,0 km/h (0 Bft) S 180 0 min -3,4 C 0,0 km/h (0 Bft)
26.04.2016 05:15 0,6 C 0,3 C 75 % 1004,4 hPa 0,0 mm 2,4 km/h (1 Bft) SW 225 0 min -3,3 C 4,8 km/h (1 Bft)
26.04.2016 05:20 0,6 C 0,5 C 75 % 1004,4 hPa 0,0 mm 2,7 km/h (1 Bft) S-SO 157 0 min -3,3 C 0,0 km/h (0 Bft)
26.04.2016 05:25 0,8 C 0,7 C 75 % 1004,4 hPa 0,0 mm 3,6 km/h (1 Bft) S 180 0 min -3,1 C 7,7 km/h (2 Bft)
26.04.2016 05:30 0,9 C 0,8 C 74 % 1004,4 hPa 0,0 mm 3,3 km/h (1 Bft) S 180 0 min -3,2 C 3,6 km/h (1 Bft)
26.04.2016 05:35 1,1 C 1,0 C 73 % 1004,1 hPa 0,0 mm 5,4 km/h (1 Bft) SW 225 0 min -3,2 C 5,4 km/h (1 Bft)
26.04.2016 05:40 1,4 C 1,1 C 73 % 1004,1 hPa 0,0 mm 5,4 km/h (1 Bft) S 180 0 min -2,9 C 4,8 km/h (1 Bft)
26.04.2016 05:45 1,5 C 1,3 C 72 % 1004,1 hPa 0,0 mm 4,5 km/h (1 Bft) W-SW 247 0 min -3,0 C 7,7 km/h (2 Bft)
26.04.2016 05:50 1,6 C 1,4 C 72 % 1004,1 hPa 0,0 mm 4,8 km/h (1 Bft) SW 225 0 min -2,9 C 6,0 km/h (2 Bft)
26.04.2016 05:55 1,8 C 1,4 C 71 % 1003,9 hPa 0,0 mm 6,0 km/h (2 Bft) S-SW 202 0 min -2,9 C 6,9 km/h (2 Bft)
26.04.2016 06:00 1,9 C 1,5 C 69 % 1003,9 hPa 0,0 mm 6,3 km/h (2 Bft) SW 225 0 min -3,2 C 11,0 km/h (2 Bft)
26.04.2016 06:05 2,0 C 1,6 C 69 % 1003,9 hPa 0,0 mm 6,6 km/h (2 Bft) SW 225 0 min -3,1 C 17,9 km/h (3 Bft)
26.04.2016 06:10 2,2 C 1,6 C 68 % 1003,9 hPa 0,0 mm 8,3 km/h (2 Bft) S 180 0 min -3,1 C 15,5 km/h (3 Bft)
26.04.2016 06:15 2,4 C 1,7 C 68 % 1003,8 hPa 0,0 mm 9,8 km/h (2 Bft) W-SW 247 0 min -2,9 C 22,4 km/h (4 Bft)
26.04.2016 06:20 2,4 C 1,8 C 67 % 1003,8 hPa 0,0 mm 9,2 km/h (2 Bft) S 180 0 min -3,1 C 10,1 km/h (2 Bft)
26.04.2016 06:25 2,5 C 1,9 C 67 % 1003,8 hPa 0,0 mm 10,4 km/h (2 Bft) SW 225 0 min -3,0 C 11,9 km/h (2 Bft)
26.04.2016 06:30 2,5 C 1,9 C 67 % 1003,8 hPa 0,0 mm 9,8 km/h (2 Bft) W-SW 247 0 min -3,0 C 7,2 km/h (2 Bft)
26.04.2016 06:35 2,6 C 2,1 C 66 % 1003,6 hPa 0,0 mm 8,3 km/h (2 Bft) W 270 0 min -3,1 C 23,2 km/h (4 Bft)
26.04.2016 06:40 2,6 C 2,3 C 66 % 1003,6 hPa 0,0 mm 6,6 km/h (2 Bft) W-SW 247 0 min -3,1 C 6,0 km/h (2 Bft)
26.04.2016 06:45 2,4 C 2,3 C 66 % 1003,6 hPa 0,0 mm 4,5 km/h (1 Bft) W-SW 247 0 min -3,3 C 7,5 km/h (2 Bft)
26.04.2016 06:50 2,5 C 2,4 C 66 % 1003,6 hPa 0,0 mm 3,0 km/h (1 Bft) W-SW 247 0 min -3,2 C 5,1 km/h (1 Bft)
26.04.2016 06:55 2,9 C 2,6 C 66 % 1003,7 hPa 0,0 mm 5,7 km/h (1 Bft) W-SW 247 0 min -2,8 C 15,5 km/h (3 Bft)
26.04.2016 07:00 3,0 C 2,8 C 65 % 1003,7 hPa 0,0 mm 6,0 km/h (2 Bft) SW 225 0 min -2,9 C 7,2 km/h (2 Bft)
26.04.2016 07:05 3,1 C 3,0 C 65 % 1003,7 hPa 0,0 mm 5,1 km/h (1 Bft) SW 225 0 min -2,8 C 7,2 km/h (2 Bft)
26.04.2016 07:10 3,2 C 3,1 C 65 % 1003,7 hPa 0,0 mm 4,8 km/h (1 Bft) W 270 0 min -2,7 C 4,2 km/h (1 Bft)
26.04.2016 07:15 3,3 C 3,3 C 65 % 1003,3 hPa 0,0 mm 5,1 km/h (1 Bft) W 270 0 min -2,6 C 7,5 km/h (2 Bft)
26.04.2016 07:20 3,4 C 3,4 C 64 % 1003,3 hPa 0,0 mm 5,1 km/h (1 Bft) SW 225 0 min -2,7 C 15,2 km/h (3 Bft)
26.04.2016 07:25 3,7 C 3,4 C 63 % 1003,3 hPa 0,0 mm 9,2 km/h (2 Bft) S 180 0 min -2,7 C 32,5 km/h (5 Bft)
26.04.2016 07:30 4,1 C 3,6 C 62 % 1003,3 hPa 0,0 mm 11,3 km/h (2 Bft) W 270 0 min -2,5 C 16,4 km/h (3 Bft)
26.04.2016 07:35 4,2 C 3,7 C 61 % 1003,3 hPa 0,0 mm 13,4 km/h (3 Bft) SW 225 0 min -2,6 C 17,3 km/h (3 Bft)
26.04.2016 07:40 4,3 C 4,0 C 61 % 1003,3 hPa 0,0 mm 9,5 km/h (2 Bft) W 270 0 min -2,5 C 8,0 km/h (2 Bft)
26.04.2016 07:45 4,3 C 4,3 C 61 % 1003,3 hPa 0,0 mm 7,2 km/h (2 Bft) W 270 0 min -2,5 C 8,3 km/h (2 Bft)
26.04.2016 07:50 4,4 C 4,4 C 60 % 1003,3 hPa 0,0 mm 6,9 km/h (2 Bft) W-NW 292 0 min -2,7 C 9,5 km/h (2 Bft)
26.04.2016 07:53 4,5 C 4,5 C 60 % 1003,6 hPa 0,0 mm 8,0 km/h (2 Bft) W-SW 247 0 min -2,6 C 11,3 km/h (2 Bft)
26.04.2016 07:56 4,5 C 4,5 C 60 % 1003,6 hPa 0,0 mm 8,0 km/h (2 Bft) W-SW 247 0 min -2,6 C 11,3 km/h (2 Bft)
26.04.2016 08:00 4,5 C 4,6 C 60 % 1003,6 hPa 0,0 mm 8,9 km/h (2 Bft) W-SW 247 0 min -2,6 C 13,7 km/h (3 Bft)
26.04.2016 08:05 4,7 C 5,0 C 59 % 1003,6 hPa 0,0 mm 8,3 km/h (2 Bft) W 270 0 min -2,6 C 3,9 km/h (1 Bft)
26.04.2016 08:10 4,8 C 5,1 C 59 % 1003,6 hPa 0,0 mm 8,0 km/h (2 Bft) W 270 0 min -2,5 C 15,2 km/h (3 Bft)
26.04.2016 08:15 5,0 C 5,4 C 59 % 1003,4 hPa 0,0 mm 7,5 km/h (2 Bft) NW 315 0 min -2,3 C 7,5 km/h (2 Bft)
26.04.2016 08:20 5,0 C 5,7 C 59 % 1003,4 hPa 0,0 mm 7,2 km/h (2 Bft) W-SW 247 0 min -2,3 C 8,3 km/h (2 Bft)
26.04.2016 08:25 5,1 C 6,2 C 59 % 1003,4 hPa 0,0 mm 6,3 km/h (2 Bft) SW 225 0 min -2,2 C 10,4 km/h (2 Bft)
26.04.2016 08:30 5,2 C 6,2 C 59 % 1003,4 hPa 0,0 mm 6,6 km/h (2 Bft) S-SW 202 0 min -2,1 C 11,3 km/h (2 Bft)
26.04.2016 08:35 5,4 C 6,2 C 59 % 1003,6 hPa 0,0 mm 6,6 km/h (2 Bft) W-SW 247 0 min -2,0 C 11,3 km/h (2 Bft)
26.04.2016 08:40 5,5 C 6,4 C 59 % 1003,6 hPa 0,0 mm 6,3 km/h (2 Bft) SW 225 0 min -1,9 C 7,5 km/h (2 Bft)
26.04.2016 08:45 5,6 C 6,6 C 59 % 1003,6 hPa 0,0 mm 5,1 km/h (1 Bft) S 180 0 min -1,8 C 3,6 km/h (1 Bft)
26.04.2016 08:50 5,7 C 6,7 C 59 % 1003,6 hPa 0,0 mm 5,1 km/h (1 Bft) W 270 0 min -1,7 C 8,0 km/h (2 Bft)
26.04.2016 08:55 6,0 C 7,5 C 59 % 1003,6 hPa 0,0 mm 6,6 km/h (2 Bft) S-SW 202 0 min -1,4 C 12,8 km/h (3 Bft)
26.04.2016 09:00 6,0 C 7,4 C 58 % 1003,6 hPa 0,0 mm 6,9 km/h (2 Bft) S 180 0 min -1,6 C 5,1 km/h (1 Bft)
26.04.2016 09:05 6,1 C 7,7 C 58 % 1003,6 hPa 0,0 mm 6,9 km/h (2 Bft) W-SW 247 0 min -1,5 C 5,1 km/h (1 Bft)
26.04.2016 09:10 6,2 C 7,6 C 58 % 1003,6 hPa 0,0 mm 7,2 km/h (2 Bft) W-NW 292 0 min -1,4 C 10,4 km/h (2 Bft)
26.04.2016 09:15 6,2 C 7,6 C 58 % 1003,6 hPa 0,0 mm 7,5 km/h (2 Bft) SW 225 0 min -1,4 C 7,7 km/h (2 Bft)
26.04.2016 09:20 6,3 C 7,9 C 58 % 1003,6 hPa 0,0 mm 6,6 km/h (2 Bft) W 270 0 min -1,3 C 5,4 km/h (1 Bft)
26.04.2016 09:25 6,5 C 8,2 C 58 % 1003,6 hPa 0,0 mm 7,2 km/h (2 Bft) W 270 0 min -1,2 C 11,9 km/h (2 Bft)
26.04.2016 09:30 6,5 C 8,1 C 58 % 1003,6 hPa 0,0 mm 7,7 km/h (2 Bft) S-SW 202 0 min -1,2 C 10,7 km/h (2 Bft)
26.04.2016 09:35 6,7 C 8,1 C 58 % 1003,4 hPa 0,0 mm 9,2 km/h (2 Bft) W-SW 247 0 min -1,0 C 10,1 km/h (2 Bft)
26.04.2016 09:40 6,8 C 8,2 C 57 % 1003,4 hPa 0,0 mm 8,9 km/h (2 Bft) W 270 0 min -1,1 C 11,3 km/h (2 Bft)
26.04.2016 09:45 6,9 C 8,6 C 58 % 1003,4 hPa 0,0 mm 7,7 km/h (2 Bft) SW 225 0 min -0,8 C 6,0 km/h (2 Bft)
26.04.2016 09:50 7,1 C 8,7 C 57 % 1003,4 hPa 0,0 mm 7,7 km/h (2 Bft) W 270 0 min -0,8 C 12,5 km/h (3 Bft)
26.04.2016 09:55 7,2 C 9,3 C 57 % 1003,4 hPa 0,0 mm 8,3 km/h (2 Bft) W-NW 292 0 min -0,7 C 15,5 km/h (3 Bft)
26.04.2016 10:00 7,3 C 9,4 C 57 % 1003,4 hPa 0,0 mm 8,6 km/h (2 Bft) W 270 0 min -0,6 C 7,5 km/h (2 Bft)
26.04.2016 10:05 7,3 C 9,4 C 57 % 1003,4 hPa 0,0 mm 8,3 km/h (2 Bft) W 270 0 min -0,6 C 8,6 km/h (2 Bft)
26.04.2016 10:10 7,4 C 9,4 C 56 % 1003,4 hPa 0,0 mm 8,3 km/h (2 Bft) W-NW 292 0 min -0,8 C 17,0 km/h (3 Bft)
26.04.2016 10:15 7,5 C 9,2 C 56 % 1003,5 hPa 0,0 mm 10,1 km/h (2 Bft) W 270 0 min -0,7 C 17,6 km/h (3 Bft)
26.04.2016 10:20 7,5 C 9,3 C 57 % 1003,5 hPa 0,0 mm 10,1 km/h (2 Bft) NW 315 0 min -0,5 C 14,3 km/h (3 Bft)
26.04.2016 10:25 7,7 C 9,3 C 57 % 1003,5 hPa 0,0 mm 11,3 km/h (2 Bft) W 270 0 min -0,3 C 20,0 km/h (4 Bft)
26.04.2016 10:30 7,7 C 9,1 C 57 % 1003,5 hPa 0,0 mm 11,9 km/h (2 Bft) W-NW 292 0 min -0,3 C 12,2 km/h (2 Bft)
26.04.2016 10:35 7,3 C 8,7 C 56 % 1003,8 hPa 0,0 mm 14,6 km/h (3 Bft) W 270 0 min -0,9 C 14,3 km/h (3 Bft)
26.04.2016 10:40 7,0 C 7,9 C 57 % 1003,8 hPa 0,0 mm 14,9 km/h (3 Bft) W 270 0 min -0,9 C 15,5 km/h (3 Bft)
26.04.2016 10:45 6,9 C 7,5 C 57 % 1003,8 hPa 0,0 mm 14,6 km/h (3 Bft) NW 315 0 min -1,0 C 16,1 km/h (3 Bft)
26.04.2016 10:50 6,9 C 7,3 C 57 % 1003,8 hPa 0,0 mm 14,3 km/h (3 Bft) W 270 0 min -1,0 C 17,9 km/h (3 Bft)
26.04.2016 10:55 6,8 C 7,4 C 57 % 1003,9 hPa 0,0 mm 18,8 km/h (3 Bft) SW 225 0 min -1,1 C 36,7 km/h (5 Bft)
26.04.2016 10:57 6,8 C 7,2 C 57 % 1003,9 hPa 0,0 mm 18,8 km/h (3 Bft) SW 225 0 min -1,1 C 16,7 km/h (3 Bft)
26.04.2016 11:00 6,8 C 7,5 C 57 % 1003,9 hPa 0,0 mm 18,2 km/h (3 Bft) W 270 0 min -1,1 C 22,4 km/h (4 Bft)
26.04.2016 11:05 6,8 C 7,7 C 57 % 1003,9 hPa 0,0 mm 17,0 km/h (3 Bft) NW 315 0 min -1,1 C 18,2 km/h (3 Bft)
26.04.2016 11:10 6,7 C 7,8 C 57 % 1003,9 hPa 0,0 mm 18,2 km/h (3 Bft) W 270 0 min -1,2 C 25,9 km/h (4 Bft)
26.04.2016 11:15 6,7 C 7,6 C 58 % 1004,1 hPa 0,0 mm 17,6 km/h (3 Bft) W 270 0 min -1,0 C 32,8 km/h (5 Bft)
26.04.2016 11:20 6,7 C 7,6 C 58 % 1004,1 hPa 0,0 mm 17,9 km/h (3 Bft) SW 225 0 min -1,0 C 23,2 km/h (4 Bft)
26.04.2016 11:25 6,5 C 7,3 C 58 % 1004,1 hPa 0,0 mm 18,5 km/h (3 Bft) W-NW 292 0 min -1,2 C 15,2 km/h (3 Bft)
26.04.2016 11:30 6,5 C 6,8 C 58 % 1004,1 hPa 0,0 mm 18,8 km/h (3 Bft) W-SW 247 0 min -1,2 C 28,9 km/h (5 Bft)
26.04.2016 11:35 6,3 C 6,7 C 58 % 1004,1 hPa 0,0 mm 17,6 km/h (3 Bft) W-NW 292 0 min -1,3 C 31,9 km/h (5 Bft)
26.04.2016 11:40 6,0 C 6,4 C 58 % 1004,1 hPa 0,0 mm 18,2 km/h (3 Bft) W-NW 292 0 min -1,6 C 29,2 km/h (5 Bft)
26.04.2016 11:45 6,1 C 6,5 C 59 % 1004,1 hPa 0,0 mm 18,2 km/h (3 Bft) W-SW 247 0 min -1,3 C 18,2 km/h (3 Bft)
26.04.2016 11:50 6,3 C 6,9 C 59 % 1004,1 hPa 0,0 mm 17,3 km/h (3 Bft) W-NW 292 0 min -1,1 C 20,0 km/h (4 Bft)
26.04.2016 11:55 6,5 C 7,2 C 59 % 1003,9 hPa 0,0 mm 18,2 km/h (3 Bft) SW 225 0 min -0,9 C 31,0 km/h (5 Bft)
26.04.2016 12:00 6,7 C 7,7 C 59 % 1003,9 hPa 0,0 mm 19,4 km/h (3 Bft) W-NW 292 0 min -0,7 C 25,0 km/h (4 Bft)
26.04.2016 12:05 7,1 C 8,3 C 59 % 1003,9 hPa 0,0 mm 19,4 km/h (3 Bft) W 270 0 min -0,4 C 17,9 km/h (3 Bft)
26.04.2016 12:10 7,1 C 8,7 C 59 % 1003,9 hPa 0,0 mm 20,9 km/h (4 Bft) NW 315 0 min -0,4 C 39,9 km/h (6 Bft)
26.04.2016 12:15 7,0 C 8,6 C 58 % 1003,8 hPa 0,0 mm 21,2 km/h (4 Bft) W 270 0 min -0,7 C 23,5 km/h (4 Bft)
26.04.2016 12:20 7,0 C 7,9 C 59 % 1003,8 hPa 0,0 mm 20,6 km/h (4 Bft) W-NW 292 0 min -0,5 C 30,1 km/h (5 Bft)
26.04.2016 12:25 6,8 C 7,8 C 59 % 1003,8 hPa 0,0 mm 22,9 km/h (4 Bft) W-NW 292 0 min -0,6 C 43,8 km/h (6 Bft)
26.04.2016 12:30 6,6 C 7,3 C 59 % 1003,8 hPa 0,0 mm 24,7 km/h (4 Bft) W 270 0 min -0,8 C 31,0 km/h (5 Bft)
26.04.2016 12:35 6,7 C 7,2 C 59 % 1004,1 hPa 0,0 mm 22,9 km/h (4 Bft) W 270 0 min -0,7 C 16,7 km/h (3 Bft)
26.04.2016 12:40 6,8 C 7,5 C 59 % 1004,1 hPa 0,0 mm 20,6 km/h (4 Bft) W-NW 292 0 min -0,6 C 22,9 km/h (4 Bft)
26.04.2016 12:45 7,0 C 7,7 C 59 % 1004,1 hPa 0,0 mm 17,6 km/h (3 Bft) NW 315 0 min -0,5 C 24,1 km/h (4 Bft)
26.04.2016 12:50 6,9 C 7,8 C 59 % 1004,1 hPa 0,0 mm 18,5 km/h (3 Bft) W-NW 292 0 min -0,5 C 29,5 km/h (5 Bft)
26.04.2016 12:55 6,8 C 7,4 C 59 % 1004,2 hPa 0,0 mm 20,0 km/h (4 Bft) W 270 0 min -0,6 C 18,2 km/h (3 Bft)
26.04.2016 13:00 6,8 C 7,3 C 59 % 1004,2 hPa 0,0 mm 20,6 km/h (4 Bft) W 270 0 min -0,6 C 31,3 km/h (5 Bft)
26.04.2016 13:05 6,8 C 7,4 C 59 % 1004,2 hPa 0,0 mm 20,0 km/h (4 Bft) W-SW 247 0 min -0,6 C 19,1 km/h (3 Bft)
26.04.2016 13:10 7,0 C 7,8 C 59 % 1004,2 hPa 0,0 mm 18,8 km/h (3 Bft) W-NW 292 0 min -0,5 C 19,1 km/h (3 Bft)
26.04.2016 13:15 7,0 C 8,1 C 60 % 1003,9 hPa 0,0 mm 16,7 km/h (3 Bft) NW 315 0 min -0,2 C 22,1 km/h (4 Bft)
26.04.2016 13:20 6,9 C 8,1 C 60 % 1003,9 hPa 0,0 mm 18,8 km/h (3 Bft) W 270 0 min -0,3 C 27,7 km/h (4 Bft)
26.04.2016 13:25 6,6 C 7,4 C 62 % 1003,9 hPa 0,0 mm 19,4 km/h (3 Bft) W-NW 292 0 min -0,1 C 24,7 km/h (4 Bft)
26.04.2016 13:30 6,6 C 7,1 C 62 % 1003,9 hPa 0,0 mm 19,4 km/h (3 Bft) W 270 0 min -0,1 C 16,1 km/h (3 Bft)
26.04.2016 13:35 6,8 C 7,5 C 63 % 1004,0 hPa 0,0 mm 17,6 km/h (3 Bft) W-NW 292 0 min 0,3 C 23,2 km/h (4 Bft)
26.04.2016 13:40 7,1 C 8,0 C 63 % 1004,0 hPa 0,0 mm 16,4 km/h (3 Bft) N-NW 337 0 min 0,5 C 18,5 km/h (3 Bft)
26.04.2016 13:45 6,9 C 7,8 C 63 % 1004,0 hPa 0,0 mm 15,2 km/h (3 Bft) S 180 0 min 0,4 C 15,5 km/h (3 Bft)
26.04.2016 13:50 6,7 C 7,5 C 63 % 1004,0 hPa 0,0 mm 16,4 km/h (3 Bft) SW 225 0 min 0,2 C 33,1 km/h (5 Bft)
26.04.2016 13:55 6,7 C 7,5 C 63 % 1004,1 hPa 0,0 mm 16,7 km/h (3 Bft) NW 315 0 min 0,2 C 24,1 km/h (4 Bft)
26.04.2016 13:58 6,8 C 7,4 C 64 % 1004,1 hPa 0,0 mm 17,0 km/h (3 Bft) W 270 0 min 0,5 C 16,4 km/h (3 Bft)
26.04.2016 14:00 6,8 C 7,3 C 64 % 1004,1 hPa 0,0 mm 17,0 km/h (3 Bft) W 270 0 min 0,5 C 16,4 km/h (3 Bft)
26.04.2016 14:05 6,7 C 7,3 C 63 % 1004,1 hPa 0,0 mm 18,2 km/h (3 Bft) SW 225 0 min 0,2 C 22,4 km/h (4 Bft)
26.04.2016 14:10 6,6 C 7,1 C 63 % 1004,1 hPa 0,0 mm 17,9 km/h (3 Bft) W 270 0 min 0,1 C 32,5 km/h (5 Bft)
26.04.2016 14:15 6,6 C 7,1 C 63 % 1004,0 hPa 0,0 mm 19,1 km/h (3 Bft) W-SW 247 0 min 0,1 C 16,7 km/h (3 Bft)
26.04.2016 14:20 6,7 C 7,4 C 63 % 1004,0 hPa 0,0 mm 17,0 km/h (3 Bft) W 270 0 min 0,2 C 15,2 km/h (3 Bft)
26.04.2016 14:25 6,8 C 7,5 C 63 % 1004,0 hPa 0,0 mm 14,9 km/h (3 Bft) W 270 0 min 0,3 C 28,3 km/h (4 Bft)
26.04.2016 14:30 6,8 C 7,7 C 63 % 1004,0 hPa 0,0 mm 14,9 km/h (3 Bft) W-NW 292 0 min 0,3 C 11,9 km/h (2 Bft)
26.04.2016 14:35 7,0 C 7,9 C 62 % 1003,9 hPa 0,0 mm 12,8 km/h (3 Bft) W 270 0 min 0,2 C 19,7 km/h (3 Bft)
26.04.2016 14:40 7,0 C 7,8 C 62 % 1003,9 hPa 0,0 mm 12,8 km/h (3 Bft) W-NW 292 0 min 0,2 C 19,4 km/h (3 Bft)
26.04.2016 14:45 7,0 C 8,0 C 61 % 1003,9 hPa 0,0 mm 16,1 km/h (3 Bft) W-NW 292 0 min 0,0 C 23,5 km/h (4 Bft)
26.04.2016 14:50 7,1 C 7,7 C 62 % 1003,9 hPa 0,0 mm 15,2 km/h (3 Bft) SW 225 0 min 0,3 C 12,2 km/h (2 Bft)
26.04.2016 14:55 7,5 C 8,4 C 60 % 1004,0 hPa 0,0 mm 15,5 km/h (3 Bft) NW 315 0 min 0,2 C 22,4 km/h (4 Bft)
26.04.2016 15:00 7,8 C 8,8 C 60 % 1004,0 hPa 0,0 mm 17,0 km/h (3 Bft) W 270 0 min 0,5 C 22,9 km/h (4 Bft)
26.04.2016 15:05 8,4 C 10,3 C 60 % 1004,0 hPa 0,0 mm 13,4 km/h (3 Bft) W-SW 247 0 min 1,1 C 25,3 km/h (4 Bft)
26.04.2016 15:10 8,4 C 11,1 C 59 % 1004,0 hPa 0,0 mm 13,7 km/h (3 Bft) SW 225 0 min 0,9 C 11,3 km/h (2 Bft)
26.04.2016 15:15 8,1 C 10,5 C 58 % 1003,9 hPa 0,0 mm 17,9 km/h (3 Bft) W-SW 247 0 min 0,3 C 10,7 km/h (2 Bft)
26.04.2016 15:20 7,9 C 9,7 C 59 % 1003,9 hPa 0,0 mm 17,0 km/h (3 Bft) W-SW 247 0 min 0,4 C 16,7 km/h (3 Bft)
26.04.2016 15:25 7,5 C 8,7 C 58 % 1003,9 hPa 0,0 mm 18,2 km/h (3 Bft) W-NW 292 0 min -0,2 C 21,8 km/h (4 Bft)
26.04.2016 15:30 7,4 C 7,9 C 58 % 1003,9 hPa 0,0 mm 19,7 km/h (3 Bft) W 270 0 min -0,3 C 31,6 km/h (5 Bft)
26.04.2016 15:35 5,8 C 6,0 C 66 % 1004,4 hPa 0,0 mm 22,7 km/h (4 Bft) NW 315 0 min -0,0 C 46,5 km/h (6 Bft)
26.04.2016 15:40 5,2 C 4,8 C 68 % 1004,4 hPa 0,0 mm 23,8 km/h (4 Bft) W 270 0 min -0,2 C 19,4 km/h (3 Bft)
26.04.2016 15:45 4,6 C 4,0 C 72 % 1004,4 hPa 0,0 mm 23,8 km/h (4 Bft) W 270 0 min -0,0 C 47,4 km/h (6 Bft)
26.04.2016 15:50 4,4 C 3,7 C 69 % 1004,4 hPa 0,0 mm 26,5 km/h (4 Bft) W-SW 247 0 min -0,8 C 39,6 km/h (6 Bft)
26.04.2016 15:55 4,1 C 3,5 C 71 % 1004,5 hPa 0,0 mm 24,4 km/h (4 Bft) W 270 0 min -0,7 C 50,7 km/h (7 Bft)
26.04.2016 16:00 3,9 C 3,4 C 72 % 1004,5 hPa 0,0 mm 22,4 km/h (4 Bft) W-NW 292 0 min -0,7 C 32,5 km/h (5 Bft)
26.04.2016 16:05 3,7 C 3,3 C 73 % 1004,5 hPa 0,0 mm 20,3 km/h (4 Bft) W 270 0 min -0,7 C 9,5 km/h (2 Bft)
26.04.2016 16:10 3,7 C 3,3 C 74 % 1004,5 hPa 0,0 mm 19,1 km/h (3 Bft) W-NW 292 0 min -0,5 C 16,4 km/h (3 Bft)
26.04.2016 16:15 3,6 C 3,2 C 74 % 1004,5 hPa 0,0 mm 13,4 km/h (3 Bft) W-SW 247 0 min -0,6 C 16,1 km/h (3 Bft)
26.04.2016 16:20 3,6 C 3,4 C 74 % 1004,5 hPa 0,0 mm 12,2 km/h (2 Bft) W-SW 247 0 min -0,6 C 15,5 km/h (3 Bft)
26.04.2016 16:25 3,8 C 3,6 C 75 % 1004,5 hPa 0,0 mm 13,1 km/h (3 Bft) W 270 0 min -0,2 C 16,4 km/h (3 Bft)
26.04.2016 16:30 3,9 C 3,6 C 75 % 1004,5 hPa 0,0 mm 14,0 km/h (3 Bft) W-SW 247 0 min -0,1 C 12,5 km/h (3 Bft)
26.04.2016 16:35 4,1 C 4,0 C 75 % 1004,2 hPa 0,0 mm 16,1 km/h (3 Bft) W-NW 292 0 min 0,1 C 24,7 km/h (4 Bft)
26.04.2016 16:40 4,1 C 3,9 C 75 % 1004,2 hPa 0,0 mm 18,2 km/h (3 Bft) NW 315 0 min 0,1 C 28,3 km/h (4 Bft)
26.04.2016 16:45 4,1 C 3,8 C 75 % 1004,2 hPa 0,0 mm 20,6 km/h (4 Bft) NW 315 0 min 0,1 C 54,8 km/h (7 Bft)
26.04.2016 16:50 4,1 C 3,8 C 75 % 1004,2 hPa 0,0 mm 19,4 km/h (3 Bft) W-SW 247 0 min 0,1 C 17,3 km/h (3 Bft)
26.04.2016 16:55 3,8 C 3,6 C 76 % 1004,3 hPa 0,0 mm 15,2 km/h (3 Bft) W-SW 247 0 min -0,0 C 25,3 km/h (4 Bft)
26.04.2016 16:58 3,8 C 3,4 C 76 % 1004,3 hPa 0,0 mm 15,8 km/h (3 Bft) O 90 0 min -0,0 C 9,8 km/h (2 Bft)
26.04.2016 16:59 3,8 C 3,1 C 76 % 1004,3 hPa 0,0 mm 15,8 km/h (3 Bft) O 90 0 min -0,0 C 9,8 km/h (2 Bft)
26.04.2016 17:00 3,8 C 3,1 C 76 % 1004,3 hPa 0,0 mm 15,8 km/h (3 Bft) O 90 0 min -0,0 C 9,8 km/h (2 Bft)
26.04.2016 17:05 3,7 C 3,1 C 76 % 1004,3 hPa 0,0 mm 15,2 km/h (3 Bft) O-NO 67 0 min -0,1 C 12,5 km/h (3 Bft)
26.04.2016 17:10 3,6 C 2,7 C 80 % 1004,3 hPa 0,0 mm 14,6 km/h (3 Bft) S-SW 202 0 min 0,5 C 14,9 km/h (3 Bft)
26.04.2016 17:15 3,3 C 2,6 C 81 % 1004,7 hPa 0,0 mm 18,8 km/h (3 Bft) W-SW 247 0 min 0,4 C 26,8 km/h (4 Bft)
26.04.2016 17:20 3,0 C 2,1 C 81 % 1004,7 hPa 0,7 mm 22,4 km/h (4 Bft) W-NW 292 0 min 0,1 C 35,5 km/h (5 Bft)
26.04.2016 17:25 1,5 C 0,7 C 80 % 1004,7 hPa 0,0 mm 19,1 km/h (3 Bft) NW 315 0 min -1,6 C 16,7 km/h (3 Bft)
26.04.2016 17:30 1,3 C 0,1 C 81 % 1004,7 hPa 0,0 mm 17,6 km/h (3 Bft) NW 315 0 min -1,6 C 17,3 km/h (3 Bft)
26.04.2016 17:35 1,4 C 0,6 C 78 % 1004,9 hPa 0,0 mm 10,7 km/h (2 Bft) W 270 0 min -2,0 C 8,6 km/h (2 Bft)
26.04.2016 17:40 1,4 C 0,7 C 78 % 1004,9 hPa 0,0 mm 10,4 km/h (2 Bft) W 270 0 min -2,0 C 12,8 km/h (3 Bft)
26.04.2016 17:45 1,4 C 0,8 C 78 % 1004,9 hPa 0,0 mm 9,8 km/h (2 Bft) NW 315 0 min -2,0 C 11,3 km/h (2 Bft)
26.04.2016 17:50 1,3 C 0,8 C 78 % 1004,9 hPa 0,0 mm 8,0 km/h (2 Bft) W-SW 247 0 min -2,1 C 3,3 km/h (1 Bft)
26.04.2016 17:55 1,3 C 1,2 C 79 % 1004,9 hPa 0,0 mm 4,5 km/h (1 Bft) W 270 0 min -1,9 C 6,3 km/h (2 Bft)
26.04.2016 18:00 1,3 C 1,1 C 79 % 1004,9 hPa 0,0 mm 2,4 km/h (1 Bft) SW 225 0 min -1,9 C 0,0 km/h (0 Bft)
26.04.2016 18:05 1,1 C 1,1 C 79 % 1004,9 hPa 0,0 mm 1,8 km/h (1 Bft) S-SW 202 0 min -2,1 C 3,6 km/h (1 Bft)
26.04.2016 18:10 1,0 C 0,9 C 79 % 1004,9 hPa 0,0 mm 0,9 km/h (0 Bft) W-NW 292 0 min -2,2 C 0,0 km/h (0 Bft)
26.04.2016 18:15 1,0 C 0,9 C 79 % 1004,6 hPa 0,0 mm 0,9 km/h (0 Bft) NW 315 0 min -2,2 C 0,0 km/h (0 Bft)
26.04.2016 18:20 0,9 C 0,9 C 79 % 1004,6 hPa 0,0 mm 0,6 km/h (0 Bft) NW 315 0 min -2,3 C 0,0 km/h (0 Bft)
26.04.2016 18:25 0,9 C 0,8 C 79 % 1004,6 hPa 0,0 mm 0,6 km/h (0 Bft) W-NW 292 0 min -2,3 C 0,0 km/h (0 Bft)
26.04.2016 18:30 0,9 C 0,9 C 79 % 1004,6 hPa 0,0 mm 0,3 km/h (0 Bft) W-NW 292 0 min -2,3 C 0,0 km/h (0 Bft)
26.04.2016 18:35 0,8 C 0,7 C 79 % 1004,8 hPa 0,0 mm 0,0 km/h (0 Bft) O-NO 67 0 min -2,4 C 0,0 km/h (0 Bft)
26.04.2016 18:40 0,8 C 0,7 C 83 % 1004,8 hPa 0,0 mm 0,0 km/h (0 Bft) O-NO 67 0 min -1,8 C 0,0 km/h (0 Bft)
26.04.2016 18:45 0,7 C 0,5 C 84 % 1004,8 hPa 0,0 mm 0,0 km/h (0 Bft) O-NO 67 0 min -1,7 C 0,0 km/h (0 Bft)
26.04.2016 18:50 0,7 C 0,5 C 84 % 1004,8 hPa 0,0 mm 0,0 km/h (0 Bft) O-NO 67 0 min -1,7 C 0,0 km/h (0 Bft)
26.04.2016 18:55 0,6 C 0,5 C 80 % 1004,4 hPa 0,0 mm 0,0 km/h (0 Bft) O-NO 67 0 min -2,4 C 0,0 km/h (0 Bft)
26.04.2016 19:00 0,6 C 0,5 C 80 % 1004,4 hPa 0,0 mm 0,3 km/h (0 Bft) O-NO 67 0 min -2,4 C 0,0 km/h (0 Bft)
26.04.2016 19:05 0,6 C 0,5 C 80 % 1004,4 hPa 0,0 mm 0,3 km/h (0 Bft) O-NO 67 0 min -2,4 C 0,0 km/h (0 Bft)
26.04.2016 19:10 0,6 C 0,5 C 80 % 1004,4 hPa 0,0 mm 0,0 km/h (0 Bft) N-NO 22 0 min -2,4 C 0,0 km/h (0 Bft)
26.04.2016 19:15 0,7 C 0,5 C 86 % 1004,3 hPa 0,0 mm 0,0 km/h (0 Bft) O-SO 112 0 min -1,4 C 0,0 km/h (0 Bft)
26.04.2016 19:20 0,6 C 0,5 C 81 % 1004,3 hPa 0,0 mm 0,0 km/h (0 Bft) O-NO 67 0 min -2,3 C 0,0 km/h (0 Bft)
26.04.2016 19:25 0,6 C 0,5 C 81 % 1004,3 hPa 0,0 mm 0,3 km/h (0 Bft) O-NO 67 0 min -2,3 C 0,0 km/h (0 Bft)
26.04.2016 19:30 0,6 C 0,5 C 81 % 1004,3 hPa 0,0 mm 0,3 km/h (0 Bft) O-NO 67 0 min -2,3 C 0,0 km/h (0 Bft)
26.04.2016 19:35 0,7 C 0,6 C 82 % 1004,1 hPa 0,7 mm 0,0 km/h (0 Bft) O-NO 67 0 min -2,0 C 0,0 km/h (0 Bft)
26.04.2016 19:40 0,7 C 0,6 C 82 % 1004,1 hPa 0,0 mm 0,0 km/h (0 Bft) O 90 0 min -2,0 C 0,0 km/h (0 Bft)
26.04.2016 19:45 0,7 C 0,6 C 82 % 1004,1 hPa 0,0 mm 0,0 km/h (0 Bft) O-NO 67 0 min -2,0 C 0,0 km/h (0 Bft)
26.04.2016 19:50 0,7 C 0,6 C 82 % 1004,1 hPa 0,0 mm 0,0 km/h (0 Bft) O-NO 67 0 min -2,0 C 0,0 km/h (0 Bft)
26.04.2016 19:55 0,7 C 0,4 C 87 % 1003,9 hPa 0,0 mm 0,0 km/h (0 Bft) O 90 0 min -1,2 C 0,0 km/h (0 Bft)
26.04.2016 19:58 0,7 C 0,4 C 87 % 1003,9 hPa 0,0 mm 0,0 km/h (0 Bft) NO 45 0 min -1,2 C 0,0 km/h (0 Bft)
26.04.2016 20:00 0,7 C 0,4 C 87 % 1003,9 hPa 0,0 mm 0,0 km/h (0 Bft) NO 45 0 min -1,2 C 0,0 km/h (0 Bft)
26.04.2016 20:05 0,7 C 0,5 C 82 % 1003,9 hPa 0,0 mm 0,0 km/h (0 Bft) NW 315 0 min -2,0 C 0,0 km/h (0 Bft)
26.04.2016 20:10 0,7 C 0,5 C 82 % 1003,9 hPa 0,0 mm 0,0 km/h (0 Bft) O-NO 67 0 min -2,0 C 0,0 km/h (0 Bft)
26.04.2016 20:15 0,8 C 0,5 C 87 % 1004,0 hPa 0,0 mm 0,9 km/h (0 Bft) N-NO 22 0 min -1,1 C 7,5 km/h (2 Bft)
26.04.2016 20:20 0,7 C 0,5 C 88 % 1004,0 hPa 0,0 mm 2,4 km/h (1 Bft) NW 315 0 min -1,1 C 0,0 km/h (0 Bft)
26.04.2016 20:25 0,7 C 0,5 C 88 % 1004,0 hPa 0,0 mm 2,7 km/h (1 Bft) N-NO 22 0 min -1,1 C 0,0 km/h (0 Bft)
26.04.2016 20:30 0,6 C 0,4 C 88 % 1004,0 hPa 0,0 mm 1,5 km/h (1 Bft) NO 45 0 min -1,2 C 0,0 km/h (0 Bft)
26.04.2016 20:35 0,6 C 0,4 C 88 % 1003,9 hPa 0,0 mm 1,2 km/h (1 Bft) O-SO 112 0 min -1,2 C 0,0 km/h (0 Bft)
26.04.2016 20:40 0,6 C 0,4 C 89 % 1003,9 hPa 0,0 mm 1,2 km/h (1 Bft) O-SO 112 0 min -1,0 C 0,0 km/h (0 Bft)
26.04.2016 20:45 0,5 C 0,3 C 89 % 1003,9 hPa 0,0 mm 0,6 km/h (0 Bft) N 360 0 min -1,1 C 0,0 km/h (0 Bft)
26.04.2016 20:50 0,4 C 0,2 C 89 % 1003,9 hPa 0,0 mm 0,3 km/h (0 Bft) N-NO 22 0 min -1,2 C 0,0 km/h (0 Bft)
26.04.2016 20:55 0,4 C 0,1 C 89 % 1003,9 hPa 0,0 mm 0,0 km/h (0 Bft) N-NW 337 0 min -1,2 C 0,0 km/h (0 Bft)
26.04.2016 21:00 0,4 C 0,1 C 88 % 1003,9 hPa 0,0 mm 0,0 km/h (0 Bft) N-NO 22 0 min -1,3 C 0,0 km/h (0 Bft)
26.04.2016 21:05 0,4 C 0,1 C 88 % 1003,9 hPa 0,0 mm 0,0 km/h (0 Bft) NW 315 0 min -1,3 C 0,0 km/h (0 Bft)
26.04.2016 21:10 0,4 C 0,2 C 88 % 1003,9 hPa 0,0 mm 0,0 km/h (0 Bft) SO 135 0 min -1,3 C 0,0 km/h (0 Bft)
26.04.2016 21:15 0,4 C 0,2 C 88 % 1003,9 hPa 0,0 mm 0,0 km/h (0 Bft) S-SO 157 0 min -1,3 C 0,0 km/h (0 Bft)
26.04.2016 21:20 0,4 C 0,2 C 88 % 1003,9 hPa 0,0 mm 0,0 km/h (0 Bft) SW 225 0 min -1,3 C 0,0 km/h (0 Bft)
26.04.2016 21:25 0,4 C 0,2 C 88 % 1003,9 hPa 0,0 mm 0,0 km/h (0 Bft) O-NO 67 0 min -1,3 C 0,0 km/h (0 Bft)
26.04.2016 21:30 0,5 C 0,2 C 88 % 1003,9 hPa 0,0 mm 0,0 km/h (0 Bft) W-NW 292 0 min -1,3 C 0,0 km/h (0 Bft)
26.04.2016 21:35 0,5 C 0,3 C 88 % 1004,0 hPa 0,0 mm 0,0 km/h (0 Bft) N-NW 337 0 min -1,3 C 0,0 km/h (0 Bft)
26.04.2016 21:40 0,4 C 0,2 C 88 % 1004,0 hPa 0,0 mm 0,0 km/h (0 Bft) S 180 0 min -1,3 C 0,0 km/h (0 Bft)
26.04.2016 21:45 0,3 C 0,1 C 88 % 1004,0 hPa 0,0 mm 0,0 km/h (0 Bft) SW 225 0 min -1,4 C 0,0 km/h (0 Bft)
26.04.2016 21:50 0,3 C 0,1 C 88 % 1004,0 hPa 0,0 mm 0,0 km/h (0 Bft) SW 225 0 min -1,4 C 0,0 km/h (0 Bft)
26.04.2016 21:55 0,3 C 0,1 C 88 % 1003,9 hPa 0,0 mm 0,0 km/h (0 Bft) O-SO 112 0 min -1,4 C 0,0 km/h (0 Bft)
26.04.2016 22:00 0,3 C 0,1 C 88 % 1003,9 hPa 0,0 mm 0,0 km/h (0 Bft) O-SO 112 0 min -1,4 C 0,0 km/h (0 Bft)
26.04.2016 22:05 0,4 C 0,2 C 89 % 1003,9 hPa 0,0 mm 0,0 km/h (0 Bft) O-SO 112 0 min -1,2 C 0,0 km/h (0 Bft)
26.04.2016 22:10 0,4 C 0,2 C 89 % 1003,9 hPa 0,0 mm 0,0 km/h (0 Bft) O 90 0 min -1,2 C 0,0 km/h (0 Bft)
26.04.2016 22:15 0,4 C 0,2 C 89 % 1003,7 hPa 0,0 mm 0,0 km/h (0 Bft) O-NO 67 0 min -1,2 C 0,0 km/h (0 Bft)
26.04.2016 22:20 0,4 C 0,2 C 89 % 1003,7 hPa 0,0 mm 0,0 km/h (0 Bft) N 360 0 min -1,2 C 0,0 km/h (0 Bft)
26.04.2016 22:25 0,4 C 0,2 C 89 % 1003,7 hPa 0,0 mm 0,0 km/h (0 Bft) S-SO 157 0 min -1,2 C 0,0 km/h (0 Bft)
26.04.2016 22:30 0,4 C 0,2 C 89 % 1003,7 hPa 0,0 mm 0,0 km/h (0 Bft) W-NW 292 0 min -1,2 C 0,0 km/h (0 Bft)
26.04.2016 22:35 0,4 C 0,2 C 89 % 1003,7 hPa 0,0 mm 0,9 km/h (0 Bft) W-NW 292 0 min -1,2 C 3,3 km/h (1 Bft)
26.04.2016 22:40 0,4 C 0,2 C 89 % 1003,7 hPa 0,0 mm 0,9 km/h (0 Bft) O-SO 112 0 min -1,2 C 0,0 km/h (0 Bft)
26.04.2016 22:45 0,3 C 0,1 C 89 % 1003,7 hPa 0,0 mm 0,3 km/h (0 Bft) O 90 0 min -1,3 C 0,0 km/h (0 Bft)
26.04.2016 22:50 0,3 C 0,1 C 89 % 1003,7 hPa 0,0 mm 0,0 km/h (0 Bft) O-NO 67 0 min -1,3 C 0,0 km/h (0 Bft)
26.04.2016 22:55 0,3 C 0,1 C 89 % 1003,2 hPa 0,0 mm 0,0 km/h (0 Bft) O-SO 112 0 min -1,3 C 0,0 km/h (0 Bft)
26.04.2016 22:57 0,4 C 0,1 C 89 % 1003,2 hPa 0,0 mm 0,0 km/h (0 Bft) O-NO 67 0 min -1,2 C 0,0 km/h (0 Bft)
26.04.2016 23:01 0,4 C 0,1 C 89 % 1003,2 hPa 0,0 mm 0,0 km/h (0 Bft) O-NO 67 0 min -1,2 C 0,0 km/h (0 Bft)
26.04.2016 23:05 0,4 C 0,2 C 89 % 1003,2 hPa 0,0 mm 1,5 km/h (1 Bft) NW 315 0 min -1,2 C 8,3 km/h (2 Bft)
26.04.2016 23:10 0,4 C 0,2 C 90 % 1003,2 hPa 0,0 mm 4,5 km/h (1 Bft) N-NW 337 0 min -1,0 C 8,0 km/h (2 Bft)
26.04.2016 23:15 0,4 C -0,1 C 90 % 1003,6 hPa 0,0 mm 7,2 km/h (2 Bft) N-NO 22 0 min -1,0 C 3,6 km/h (1 Bft)
26.04.2016 23:20 0,4 C 0,0 C 90 % 1003,6 hPa 0,0 mm 5,7 km/h (1 Bft) N-NW 337 0 min -1,0 C 13,7 km/h (3 Bft)
26.04.2016 23:25 0,3 C 0,1 C 90 % 1003,6 hPa 0,0 mm 4,2 km/h (1 Bft) N-NO 22 0 min -1,1 C 4,2 km/h (1 Bft)
26.04.2016 23:30 0,3 C 0,1 C 90 % 1003,6 hPa 0,0 mm 4,8 km/h (1 Bft) NW 315 0 min -1,1 C 5,4 km/h (1 Bft)
26.04.2016 23:35 0,2 C 0,0 C 90 % 1003,8 hPa 0,0 mm 3,9 km/h (1 Bft) W-NW 292 0 min -1,2 C 4,8 km/h (1 Bft)
26.04.2016 23:40 0,1 C -0,3 C 90 % 1003,8 hPa 0,0 mm 6,3 km/h (2 Bft) W-NW 292 0 min -1,3 C 8,6 km/h (2 Bft)
26.04.2016 23:45 -0,2 C -0,9 C 90 % 1003,8 hPa 0,0 mm 9,2 km/h (2 Bft) W 270 0 min -1,6 C 7,2 km/h (2 Bft)
26.04.2016 23:50 -0,2 C -1,0 C 90 % 1003,8 hPa 0,0 mm 9,5 km/h (2 Bft) W 270 0 min -1,6 C 8,3 km/h (2 Bft)
26.04.2016 23:55 -0,3 C -0,8 C 90 % 1003,9 hPa 0,0 mm 7,5 km/h (2 Bft) W 270 0 min -1,7 C 12,5 km/h (3 Bft)
_ Min-Zeit 01:35 01:35 10:35 23:10 - 23:01 - - - 01:50 23:01
Minimum _ -2,3 C -2,8 C 56 % 1003,2 hPa - 0,0 km/h (0 Bft) - - - -5,7 C 0,0 km/h (0 Bft)
_ Max-Zeit 15:10 15:10 23:55 00:10 19:35 15:50 - - 23:55 15:05 16:45
Maximum _ 8,4 C 11,1 C 90 % 1008,0 hPa 0,7 mm 26,5 km/h
W-SW (4 Bft)
- - 0 min 1,1 C 54,8 km/h
NW (7 Bft)
Durchschnitt _ 2,7 C 2,8 C 72 % 1004,5 hPa #1,4 mm 7,7 km/h (2 Bft) W - #0 min. -2,0 C 10,3 km/h (2 Bft)